SCP
0 0 0 0 0 0 0 0 0 0 0 0 0 0 0 0 0 0 0 0 0 0 0 0 0 0 0 0 0 0 0 0 0 0 0 0 0 0 0 0 0 0 0
0 0 0 0 0 0 0 0 0 0 0 0 0 0 0 0 0 0 0 0 0 0 0 0 0 0 0 0 0 0 0 0 0 0 0 0 0 0 0 0 0 0 0
0 0 0 0 0 0 0 0 0 0 0 0 0 0 0 0 0 0 0 0 0 0 0 0 0 0 0 0 0 0 0 0 0 0 0 0 0 0 0 0 0 0 0
0 0 0 0 0 0 0 0 0 0 0 0 0 0 0 0 0 0 0 0 0 0 0 0 0 0 0 0 0 0 0 0 0 0 0 0 0 0 0 0 0 0 0
0 0 0 -0 0 0 0 0 0 0 0 0 0 0 0 0 0 0 0 0 0 0 0 0 0 0 0 0 0 0 0 0 0 0 0 0 0 0 0 0 0 0 0
0 0 0 -0 -0 0 0 0 0 0 0 0 0 0 0 0 0 0 0 0 0 0 0 0 0 0 0 0 0 0 0 0 0 0 0 0 0 0 0 0 0 0 0
0 0 0 -0 0 0 0 0 0 0 0 0 0 0 0 0 0 0 0 0 0 0 0 0 0 0 0 0 0 0 0 0 0 0 0 0 0 0 0 0 0 0 0
0 0 0 0 0 0 0 0 0 0 0 0 0 0 0 0 0 0 0 0 0 0 0 0 0 0 0 0 0 0 0 0 0 0 0 0 0 0 0 0 0 0 0
0 0 0 0 0 0 0 0 0 0 0 0 0 0 0 0 0 0 0 0 0 0 0 0 0 0 0 0 0 0 0 0 0 0 0 0 0 0 0 0 0 0 0
-0 -0 -0 -0 0 0 0 0 0 0 0 0 0 0 0 0 0 0 0 0 0 0 0 0 0 0 0 0 0 0 0 0 0 0 0 0 0 0 0 0 0 0 0
-0 -0 -0 0 0 0 -0 -0 -0 0 0 0 0 0 0 0 0 0 0 0 0 0 0 0 0 0 0 0 0 0 0 0 0 0 0 0 0 0 0 0 0 0 0
0 0 0 0 0 0 0 0 0 -0 0 0 0 0 0 0 0 0 0 0 0 0 0 0 0 0 0 0 0 0 0 0 0 0 0 0 0 0 0 0 0 0 0
0 0 0 0 0 0 0 0 0 0 -0 0 0 0 0 0 0 0 0 0 0 0 0 0 0 0 0 0 0 0 0 0 0 0 0 0 0 0 0 0 0 0 0
0 0 0 0 0 0 0 0 0 0 0 -0 -0 0 0 0 0 0 0 0 0 0 0 0 0 0 0 0 0 0 0 0 0 0 0 0 0 0 0 0 0 0 0
0 0 0 0 0 0 0 0 0 0 0 0 0 0 0 0 0 0 0 0 0 0 0 0 0 0 0 0 0 0 0 0 0 0 0 0 0 0 0 0 0 0 0
-0 0 0 0 0 0 0 0 0 0 0 0 0 0 0 -0 0 0 0 0 0 0 0 0 0 0 0 0 0 0 0 0 0 0 0 0 0 0 0 0 0 0 0
0 0 0 0 0 0 0 0 0 0 0 0 0 0 0 0 0 0 0 0 0 0 0 0 0 0 0 0 0 0 0 0 0 0 0 0 0 0 0 0 0 0 0
-0 -0 -0 -0 -0 0 0 0 0 0 0 0 0 0 0 0 0 0 0 0 0 0 0 0 0 0 0 0 0 0 0 0 0 0 0 0 0 0 0 0 0 0 0
-0 -0 -0 -0 -0 -0 -0 -0 0 0 0 0 0 0 0 0 0 0 0 0 0 0 0 0 0 0 0 0 0 0 0 0 0 0 0 0 0 0 0 0 0 0 0
-0 -0 -0 -0 -0 -0 -0 -0 -0 -0 -0 0 0 0 0 0 0 0 0 0 0 0 0 0 0 0 0 0 0 0 0 0 0 0 0 0 0 0 0 0 0 0 0
-0 -0 -0 -0 -0 -0 -0 -0 -0 0 -0 -0 -0 -0 -0 0 0 0 0 0 0 0 0 0 0 0 0 0 0 0 0 0 0 0 0 0 0 0 0 0 0 0 0
0 0 0 -0 -0 0 -0 -0 0 -0 0 0 0 0 0 -0 -0 -0 0 0 0 0 0 0 0 0 0 0 0 0 0 0 0 0 0 0 0 0 0 0 0 0 0
0 0 0 0 0 0 0 -0 -0 -0 -0 -0 0 0 0 0 0 -0 -0 0 0 0 0 0 0 0 0 0 0 0 0 0 0 0 0 0 0 0 0 0 0 0 0
0 0 0 0 0 0 0 0 -0 -0 -0 -0 -0 -0 -0 0 -0 0 0 0 0 0 0 0 0 0 0 0 0 0 0 0 0 0 0 0 0 0 0 0 0 0 0
0 0 0 0 0 0 0 0 0 -0 -0 -0 -0 -0 -0 -0 -0 0 0 0 0 0 0 0 0 0 0 0 0 0 0 0 0 0 0 0 0 0 0 0 0 0 0
0 0 0 0 0 0 0 0 0 -0 -0 -0 -0 -0 -0 -0 -0 0 0 0 0 0 0 0 0 0 0 0 0 0 0 0 0 0 0 0 0 0 0 0 0 0 0
Wind_Speed_500mb
99 90 80 77 72 63 59 62 69 73 80 84 89 94 94 93 93 92 89 87 85 82 79 76 70 67 59 51 48 46 37 30 27 23 23 23 19 12 11 9 2 1 3
91 90 82 67 59 55 50 47 53 68 77 86 90 93 89 91 93 92 92 92 90 87 84 81 76 69 63 62 57 51 44 38 30 20 21 6 15 17 17 18 17 7 9
79 66 73 71 55 46 44 45 48 57 73 81 88 91 90 92 95 99 97 97 93 90 89 83 77 72 68 65 60 56 50 45 33 23 14 6 7 9 19 17 15 18 16
53 60 69 64 66 51 34 40 51 64 69 74 81 90 96 97 97 96 94 95 95 95 92 86 80 76 72 68 64 60 55 49 40 29 21 19 22 12 10 15 14 20 18
40 51 57 66 58 49 42 41 45 56 67 74 76 82 89 94 91 90 91 94 95 96 93 88 84 80 76 72 69 67 62 54 49 39 28 23 24 27 26 24 19 19 17
54 57 59 67 54 36 39 44 45 48 59 67 72 76 83 89 90 87 84 92 95 95 93 90 87 84 82 80 75 70 64 58 52 44 35 29 27 29 30 30 28 24 16
58 75 76 72 60 38 32 38 42 44 46 53 60 68 74 78 81 81 82 84 89 97 97 95 96 92 87 82 77 74 70 66 59 49 42 37 34 32 33 33 30 25 21
55 73 76 72 58 41 28 27 29 31 39 41 52 57 66 76 79 80 81 82 82 84 91 96 95 90 86 82 81 78 74 68 63 58 50 42 37 35 32 32 30 27 23
46 59 62 68 47 40 27 21 18 20 26 35 46 49 54 67 77 77 77 78 77 80 82 87 92 93 90 88 86 84 80 76 69 63 55 48 42 39 38 36 33 29 21
61 54 53 43 42 46 47 40 31 34 37 35 39 47 56 62 69 74 79 78 78 81 82 81 85 91 94 91 91 89 85 81 77 71 65 57 49 45 41 40 36 34 31
60 58 51 40 38 40 41 43 41 46 56 58 58 59 62 70 73 79 79 82 84 84 85 84 82 86 93 96 96 93 89 87 82 78 73 63 55 48 43 44 42 40 37
65 61 53 54 53 50 51 57 53 44 39 46 53 59 67 74 80 89 90 90 91 90 86 86 86 86 89 97 100 98 95 95 91 85 79 71 63 55 50 47 47 43 41
65 63 67 66 65 66 68 65 63 70 64 54 47 48 51 60 73 84 94 99 100 97 96 96 94 93 93 98 103 102 100 99 96 90 85 77 70 61 55 53 49 46 43
66 68 76 71 70 77 75 78 76 72 78 76 74 66 57 58 62 64 82 96 101 105 105 105 102 100 95 98 102 105 106 101 101 96 91 82 72 64 58 56 51 46 40
64 66 73 73 77 79 85 85 82 80 80 83 78 85 72 63 60 67 71 85 97 99 106 109 108 105 103 103 107 110 110 108 107 103 95 87 75 69 62 59 53 47 43
47 49 64 66 80 79 82 89 91 84 81 82 85 77 77 70 64 61 67 74 86 94 101 109 108 111 114 110 106 107 111 113 111 108 101 90 81 76 69 63 56 50 45
45 46 63 64 71 72 76 79 83 90 81 77 82 84 80 74 75 65 60 68 77 85 98 105 109 109 117 110 106 109 110 113 116 110 103 95 87 79 70 63 57 52 45
41 53 57 64 67 69 72 78 79 83 87 82 83 86 84 78 79 76 63 61 71 80 89 96 101 102 112 105 104 108 112 115 112 109 105 98 90 83 72 63 58 53 47
50 61 62 62 65 70 71 77 82 84 86 91 88 88 90 87 76 74 72 60 60 75 85 86 89 102 106 99 103 108 115 115 114 113 108 97 90 77 71 67 59 54 48
61 68 67 65 67 69 75 82 83 87 92 94 93 95 87 83 81 73 68 64 56 62 71 76 84 92 98 98 103 110 112 113 116 111 107 100 88 78 75 70 62 58 47
70 72 74 78 79 79 82 86 92 98 100 103 105 96 95 86 79 72 68 64 57 49 55 66 73 80 88 88 97 102 111 109 116 116 105 94 87 81 77 70 64 52 46
76 74 78 82 84 89 93 96 99 100 105 110 110 112 100 97 88 75 68 65 57 55 50 53 67 71 76 77 85 93 108 98 101 106 101 94 88 82 76 68 59 52 50
83 83 87 95 99 101 101 106 113 111 110 110 120 116 112 104 100 81 73 69 65 58 55 54 64 65 69 72 84 84 88 89 95 99 94 85 84 79 65 55 47 51 42
93 91 95 105 113 113 116 119 121 118 116 120 118 123 116 108 96 96 77 71 73 73 70 62 60 63 65 67 77 80 86 79 89 90 84 78 74 65 65 64 60 44 41
103 98 97 104 120 123 126 126 126 119 123 123 124 117 118 104 98 91 87 75 74 79 87 74 71 65 68 71 76 92 99 96 90 79 73 72 73 73 71 65 51 46 43
105 102 107 104 117 116 123 116 108 111 117 119 117 111 104 103 94 83 90 77 75 76 75 83 75 75 67 59 65 86 103 104 90 80 87 92 90 85 74 64 55 50 40
Wind_Direction_500mb
295 298 298 298 298 294 286 269 258 249 240 236 235 234 234 233 232 231 230 230 230 230 230 230 228 228 229 233 233 237 243 255 272 290 308 314 301 271 230 208 293 239 317
296 301 303 305 308 308 296 273 258 251 247 242 237 234 233 234 234 232 228 228 228 229 230 229 229 229 228 228 231 235 238 247 255 274 301 265 287 259 245 254 276 227 342
291 309 313 315 314 315 301 281 263 252 247 243 236 233 231 232 230 228 227 227 227 228 229 229 229 229 229 231 233 234 236 241 244 257 271 261 218 213 259 246 234 261 305
314 326 321 322 321 315 304 284 260 251 244 240 237 234 235 233 234 234 231 228 227 227 228 227 228 229 230 230 232 233 234 239 242 242 255 269 265 255 256 270 245 265 308
351 338 332 326 313 300 304 285 263 251 246 241 236 234 234 236 238 236 233 230 228 227 227 227 226 227 229 230 231 231 233 235 241 244 243 251 262 262 255 263 260 275 303
1 358 347 337 328 289 284 281 263 248 243 242 240 237 235 234 234 235 235 233 230 229 228 227 228 229 229 229 230 230 232 236 237 239 244 251 256 266 264 262 272 284 290
7 9 360 347 336 317 284 276 259 249 249 245 244 242 241 239 238 238 238 235 233 231 230 229 227 227 228 228 229 230 232 234 236 241 246 251 260 266 266 265 270 277 286
5 1 2 356 351 338 325 299 275 263 253 249 249 245 243 241 240 241 241 240 239 237 235 233 232 231 230 229 229 230 232 232 234 236 240 247 255 261 261 258 260 270 279
343 351 349 346 2 11 2 346 323 307 291 275 261 252 251 249 245 244 246 246 246 241 239 236 235 234 230 229 230 230 230 231 233 235 239 246 255 262 263 261 260 257 259
345 357 354 348 347 6 0 352 344 333 315 296 283 270 261 257 255 250 248 248 246 243 241 237 235 235 233 231 229 229 228 229 231 234 239 244 251 256 260 261 259 260 254
12 11 12 11 6 5 359 349 340 331 323 310 295 283 275 269 264 258 254 251 249 246 242 239 235 233 233 232 231 230 229 229 231 233 237 241 246 253 257 261 262 262 259
5 6 5 4 6 4 0 4 1 351 326 303 297 297 290 281 276 269 262 256 251 249 246 244 240 235 232 232 232 232 230 230 229 232 235 239 244 247 250 254 258 258 260
5 357 357 360 1 4 4 360 360 2 357 342 314 295 289 290 286 279 270 264 257 251 246 243 242 237 231 230 231 232 233 232 232 232 234 237 240 245 248 250 252 253 257
1 2 359 355 355 356 354 352 352 354 353 350 347 325 307 304 303 294 277 269 261 256 251 249 244 240 234 231 231 231 231 231 232 232 232 233 238 243 247 250 249 245 255
352 353 351 347 344 348 348 347 346 344 344 349 349 348 324 304 299 295 287 277 268 262 257 252 248 243 238 233 229 229 229 229 230 230 230 231 233 239 243 244 244 243 250
342 340 344 342 341 344 340 338 339 339 338 340 342 345 353 333 300 287 286 282 275 266 259 254 249 245 241 238 233 231 229 229 229 228 227 228 231 235 238 240 239 243 250
331 327 335 337 334 336 335 333 331 333 335 334 334 334 340 346 342 303 285 277 274 270 262 256 251 247 244 240 236 232 230 229 228 227 227 227 229 231 233 235 236 241 248
323 321 329 327 324 328 328 328 330 331 331 330 325 327 329 331 337 340 310 292 280 269 263 257 252 247 243 240 236 235 232 228 228 228 228 228 229 229 230 230 232 235 241
312 319 320 321 322 325 328 328 328 327 328 327 324 321 322 322 323 329 334 313 289 274 262 257 252 244 241 237 232 233 233 228 224 224 225 227 227 226 226 225 225 232 238
310 312 315 316 316 323 327 328 329 329 327 324 321 318 318 314 314 316 323 323 304 280 268 261 254 248 243 236 231 230 232 228 223 221 223 224 224 223 226 226 227 230 234
306 306 308 310 314 317 319 319 320 322 322 321 319 315 314 314 312 309 305 307 306 293 276 265 257 251 244 236 231 230 232 227 223 220 219 218 221 222 225 225 226 229 229
304 302 304 304 305 308 310 310 310 314 314 314 314 314 312 308 308 301 297 290 289 293 284 271 260 252 245 235 229 227 234 231 229 224 221 220 220 220 221 225 223 224 231
304 303 303 302 302 303 304 304 307 307 308 308 310 309 307 305 302 298 288 283 277 274 272 261 253 250 247 236 224 212 223 229 223 224 225 220 218 219 213 208 205 212 227
303 305 303 301 301 302 301 302 303 304 304 303 302 302 301 298 297 294 287 280 273 265 258 259 257 251 241 236 220 206 214 225 223 219 217 213 211 204 210 200 214 219 224
302 302 299 297 298 300 299 299 300 301 300 300 299 296 294 294 293 288 287 280 274 269 264 258 260 255 253 242 226 216 207 214 226 214 207 202 199 206 208 211 217 220 220
302 299 297 295 296 297 296 297 297 297 298 296 293 292 291 290 287 284 282 280 275 275 270 262 256 258 255 248 242 218 206 215 217 213 208 205 208 208 206 211 213 216 221
Wind_Speed_850mb
99 90 80 77 72 63 59 62 69 73 80 84 89 94 94 93 93 92 89 87 85 82 79 76 70 67 59 51 48 46 37 30 27 23 23 23 19 12 11 9 2 1 3
91 90 82 67 59 55 50 47 53 68 77 86 90 93 89 91 93 92 92 92 90 87 84 81 76 69 63 62 57 51 44 38 30 20 21 6 15 17 17 18 17 7 9
79 66 73 71 55 46 44 45 48 57 73 81 88 91 90 92 95 99 97 97 93 90 89 83 77 72 68 65 60 56 50 45 33 23 14 6 7 9 19 17 15 18 16
53 60 69 64 66 51 34 40 51 64 69 74 81 90 96 97 97 96 94 95 95 95 92 86 80 76 72 68 64 60 55 49 40 29 21 19 22 12 10 15 14 20 18
40 51 57 66 58 49 42 41 45 56 67 74 76 82 89 94 91 90 91 94 95 96 93 88 84 80 76 72 69 67 62 54 49 39 28 23 24 27 26 24 19 19 17
54 57 59 67 54 36 39 44 45 48 59 67 72 76 83 89 90 87 84 92 95 95 93 90 87 84 82 80 75 70 64 58 52 44 35 29 27 29 30 30 28 24 16
58 75 76 72 60 38 32 38 42 44 46 53 60 68 74 78 81 81 82 84 89 97 97 95 96 92 87 82 77 74 70 66 59 49 42 37 34 32 33 33 30 25 21
55 73 76 72 58 41 28 27 29 31 39 41 52 57 66 76 79 80 81 82 82 84 91 96 95 90 86 82 81 78 74 68 63 58 50 42 37 35 32 32 30 27 23
46 59 62 68 47 40 27 21 18 20 26 35 46 49 54 67 77 77 77 78 77 80 82 87 92 93 90 88 86 84 80 76 69 63 55 48 42 39 38 36 33 29 21
61 54 53 43 42 46 47 40 31 34 37 35 39 47 56 62 69 74 79 78 78 81 82 81 85 91 94 91 91 89 85 81 77 71 65 57 49 45 41 40 36 34 31
60 58 51 40 38 40 41 43 41 46 56 58 58 59 62 70 73 79 79 82 84 84 85 84 82 86 93 96 96 93 89 87 82 78 73 63 55 48 43 44 42 40 37
65 61 53 54 53 50 51 57 53 44 39 46 53 59 67 74 80 89 90 90 91 90 86 86 86 86 89 97 100 98 95 95 91 85 79 71 63 55 50 47 47 43 41
65 63 67 66 65 66 68 65 63 70 64 54 47 48 51 60 73 84 94 99 100 97 96 96 94 93 93 98 103 102 100 99 96 90 85 77 70 61 55 53 49 46 43
66 68 76 71 70 77 75 78 76 72 78 76 74 66 57 58 62 64 82 96 101 105 105 105 102 100 95 98 102 105 106 101 101 96 91 82 72 64 58 56 51 46 40
64 66 73 73 77 79 85 85 82 80 80 83 78 85 72 63 60 67 71 85 97 99 106 109 108 105 103 103 107 110 110 108 107 103 95 87 75 69 62 59 53 47 43
47 49 64 66 80 79 82 89 91 84 81 82 85 77 77 70 64 61 67 74 86 94 101 109 108 111 114 110 106 107 111 113 111 108 101 90 81 76 69 63 56 50 45
45 46 63 64 71 72 76 79 83 90 81 77 82 84 80 74 75 65 60 68 77 85 98 105 109 109 117 110 106 109 110 113 116 110 103 95 87 79 70 63 57 52 45
41 53 57 64 67 69 72 78 79 83 87 82 83 86 84 78 79 76 63 61 71 80 89 96 101 102 112 105 104 108 112 115 112 109 105 98 90 83 72 63 58 53 47
50 61 62 62 65 70 71 77 82 84 86 91 88 88 90 87 76 74 72 60 60 75 85 86 89 102 106 99 103 108 115 115 114 113 108 97 90 77 71 67 59 54 48
61 68 67 65 67 69 75 82 83 87 92 94 93 95 87 83 81 73 68 64 56 62 71 76 84 92 98 98 103 110 112 113 116 111 107 100 88 78 75 70 62 58 47
70 72 74 78 79 79 82 86 92 98 100 103 105 96 95 86 79 72 68 64 57 49 55 66 73 80 88 88 97 102 111 109 116 116 105 94 87 81 77 70 64 52 46
76 74 78 82 84 89 93 96 99 100 105 110 110 112 100 97 88 75 68 65 57 55 50 53 67 71 76 77 85 93 108 98 101 106 101 94 88 82 76 68 59 52 50
83 83 87 95 99 101 101 106 113 111 110 110 120 116 112 104 100 81 73 69 65 58 55 54 64 65 69 72 84 84 88 89 95 99 94 85 84 79 65 55 47 51 42
93 91 95 105 113 113 116 119 121 118 116 120 118 123 116 108 96 96 77 71 73 73 70 62 60 63 65 67 77 80 86 79 89 90 84 78 74 65 65 64 60 44 41
103 98 97 104 120 123 126 126 126 119 123 123 124 117 118 104 98 91 87 75 74 79 87 74 71 65 68 71 76 92 99 96 90 79 73 72 73 73 71 65 51 46 43
105 102 107 104 117 116 123 116 108 111 117 119 117 111 104 103 94 83 90 77 75 76 75 83 75 75 67 59 65 86 103 104 90 80 87 92 90 85 74 64 55 50 40
Wind_Direction_850mb
295 298 298 298 298 294 286 269 258 249 240 236 235 234 234 233 232 231 230 230 230 230 230 230 228 228 229 233 233 237 243 255 272 290 308 314 301 271 230 208 293 239 317
296 301 303 305 308 308 296 273 258 251 247 242 237 234 233 234 234 232 228 228 228 229 230 229 229 229 228 228 231 235 238 247 255 274 301 265 287 259 245 254 276 227 342
291 309 313 315 314 315 301 281 263 252 247 243 236 233 231 232 230 228 227 227 227 228 229 229 229 229 229 231 233 234 236 241 244 257 271 261 218 213 259 246 234 261 305
314 326 321 322 321 315 304 284 260 251 244 240 237 234 235 233 234 234 231 228 227 227 228 227 228 229 230 230 232 233 234 239 242 242 255 269 265 255 256 270 245 265 308
351 338 332 326 313 300 304 285 263 251 246 241 236 234 234 236 238 236 233 230 228 227 227 227 226 227 229 230 231 231 233 235 241 244 243 251 262 262 255 263 260 275 303
1 358 347 337 328 289 284 281 263 248 243 242 240 237 235 234 234 235 235 233 230 229 228 227 228 229 229 229 230 230 232 236 237 239 244 251 256 266 264 262 272 284 290
7 9 360 347 336 317 284 276 259 249 249 245 244 242 241 239 238 238 238 235 233 231 230 229 227 227 228 228 229 230 232 234 236 241 246 251 260 266 266 265 270 277 286
5 1 2 356 351 338 325 299 275 263 253 249 249 245 243 241 240 241 241 240 239 237 235 233 232 231 230 229 229 230 232 232 234 236 240 247 255 261 261 258 260 270 279
343 351 349 346 2 11 2 346 323 307 291 275 261 252 251 249 245 244 246 246 246 241 239 236 235 234 230 229 230 230 230 231 233 235 239 246 255 262 263 261 260 257 259
345 357 354 348 347 6 0 352 344 333 315 296 283 270 261 257 255 250 248 248 246 243 241 237 235 235 233 231 229 229 228 229 231 234 239 244 251 256 260 261 259 260 254
12 11 12 11 6 5 359 349 340 331 323 310 295 283 275 269 264 258 254 251 249 246 242 239 235 233 233 232 231 230 229 229 231 233 237 241 246 253 257 261 262 262 259
5 6 5 4 6 4 0 4 1 351 326 303 297 297 290 281 276 269 262 256 251 249 246 244 240 235 232 232 232 232 230 230 229 232 235 239 244 247 250 254 258 258 260
5 357 357 360 1 4 4 360 360 2 357 342 314 295 289 290 286 279 270 264 257 251 246 243 242 237 231 230 231 232 233 232 232 232 234 237 240 245 248 250 252 253 257
1 2 359 355 355 356 354 352 352 354 353 350 347 325 307 304 303 294 277 269 261 256 251 249 244 240 234 231 231 231 231 231 232 232 232 233 238 243 247 250 249 245 255
352 353 351 347 344 348 348 347 346 344 344 349 349 348 324 304 299 295 287 277 268 262 257 252 248 243 238 233 229 229 229 229 230 230 230 231 233 239 243 244 244 243 250
342 340 344 342 341 344 340 338 339 339 338 340 342 345 353 333 300 287 286 282 275 266 259 254 249 245 241 238 233 231 229 229 229 228 227 228 231 235 238 240 239 243 250
331 327 335 337 334 336 335 333 331 333 335 334 334 334 340 346 342 303 285 277 274 270 262 256 251 247 244 240 236 232 230 229 228 227 227 227 229 231 233 235 236 241 248
323 321 329 327 324 328 328 328 330 331 331 330 325 327 329 331 337 340 310 292 280 269 263 257 252 247 243 240 236 235 232 228 228 228 228 228 229 229 230 230 232 235 241
312 319 320 321 322 325 328 328 328 327 328 327 324 321 322 322 323 329 334 313 289 274 262 257 252 244 241 237 232 233 233 228 224 224 225 227 227 226 226 225 225 232 238
310 312 315 316 316 323 327 328 329 329 327 324 321 318 318 314 314 316 323 323 304 280 268 261 254 248 243 236 231 230 232 228 223 221 223 224 224 223 226 226 227 230 234
306 306 308 310 314 317 319 319 320 322 322 321 319 315 314 314 312 309 305 307 306 293 276 265 257 251 244 236 231 230 232 227 223 220 219 218 221 222 225 225 226 229 229
304 302 304 304 305 308 310 310 310 314 314 314 314 314 312 308 308 301 297 290 289 293 284 271 260 252 245 235 229 227 234 231 229 224 221 220 220 220 221 225 223 224 231
304 303 303 302 302 303 304 304 307 307 308 308 310 309 307 305 302 298 288 283 277 274 272 261 253 250 247 236 224 212 223 229 223 224 225 220 218 219 213 208 205 212 227
303 305 303 301 301 302 301 302 303 304 304 303 302 302 301 298 297 294 287 280 273 265 258 259 257 251 241 236 220 206 214 225 223 219 217 213 211 204 210 200 214 219 224
302 302 299 297 298 300 299 299 300 301 300 300 299 296 294 294 293 288 287 280 274 269 264 258 260 255 253 242 226 216 207 214 226 214 207 202 199 206 208 211 217 220 220
302 299 297 295 296 297 296 297 297 297 298 296 293 292 291 290 287 284 282 280 275 275 270 262 256 258 255 248 242 218 206 215 217 213 208 205 208 208 206 211 213 216 221